This demonstration page uses our WeatherBlox Daily Observations layout. Learn more.

Left ArrowRight Arrow

41.12389, -100.76542

Hourly Observations for December 16, 2016

Temp ( °F °C ) Dew Point ( °F °C ) Humidity (%) Winds ( mph kmh ) Pressure ( in mb ) Visibility ( mi km ) Precip ( " mm )
12:53 am 00:53 Clear 22 -5.6 4 -15.6 46 46 SE 3 6 29.79 1009 10 16 0.00 0.00
1:53 am 01:53 Clear 22 -5.6 5 -15 48 48 SSE 5 7 29.76 1008 10 16 0.00 0.00
2:53 am 02:53 Partly Cloudy 23 -5 6 -14.4 48 48 VRB 3 6 29.78 1008 10 16 0.00 0.00
3:53 am 03:53 Clear 23 -5 6 -14.4 48 48 E 3 6 29.77 1008 10 16 0.00 0.00
4:53 am 04:53 Clear 23 -5 7 -13.9 50 50 E 5 7 29.76 1008 10 16 0.00 0.00
5:53 am 05:53 Clear 22 -5.6 7 -13.9 52 52 E 8 13 29.75 1007 10 16 0.00 0.00
6:53 am 06:53 Mostly Clear 22 -5.6 8 -13.3 55 55 ESE 9 15 29.76 1008 10 16 0.00 0.00
7:53 am 07:53 Mostly Clear 21 -6.1 9 -12.8 59 59 ENE 6 9 29.73 1007 10 16 0.00 0.00
8:53 am 08:53 Sunny 20 -6.7 9 -12.8 62 62 N 14 22 29.74 1007 10 16 0.00 0.00
9:53 am 09:53 Cloudy 20 -6.7 8 -13.3 60 60 NNE 13 20 29.73 1007 10 16 0.00 0.00
10:53 am 10:53 Cloudy 19 -7.2 8 -13.3 62 62 NNE 12 19 29.72 1007 10 16 0.00 0.00
11:53 am 11:53 Cloudy 20 -6.7 8 -13.3 60 60 NNE 12 19 29.69 1005 10 16 0.00 0.00
12:53 pm 12:53 Cloudy 21 -6.1 8 -13.3 57 57 NNE 13 20 29.65 1004 10 16 0.00 0.00
1:53 pm 13:53 Cloudy 20 -6.7 8 -13.3 60 60 NNE 12 19 29.65 1004 10 16 0.00 0.00
2:53 pm 14:53 Cloudy 19 -7.2 7 -13.9 59 59 N 14 22 29.65 1004 10 16 0.00 0.00
3:53 pm 15:53 Cloudy 17 -8.3 7 -13.9 64 64 N 16 26 29.67 1005 10 16 0.00 0.00
4:53 pm 16:53 Cloudy 16 -8.9 7 -13.9 67 67 N 14 22 29.69 1005 10 16 0.00 0.00
5:53 pm 17:53 Cloudy 15 -9.4 7 -13.9 70 70 NNE 18 30 29.69 1005 8 13 0.00 0.03
6:53 pm 18:53 Cloudy with Light Snow 12 -11.1 5 -15 73 73 N 15 24 29.74 1007 7 11 0.00 0.03
7:53 pm 19:53 Cloudy 11 -11.7 3 -16.1 70 70 N 16 26 29.79 1009 10 16 0.00 0.03
8:37 pm 20:37 Cloudy 10 -12.2 3 -16.1 73 73 NNW 12 19 29.91 1013 10 16 0.00 0.03
8:53 pm 20:53 Cloudy 10 -12.2 2 -16.7 69 69 N 13 20 29.80 1009 10 16 0.01 0.25
9:40 pm 21:40 Cloudy with Light Snow 10 -12 3 -16 72 72 NNW 16 26 29.94 1014 9 14 0.00 0.00
9:53 pm 21:53 Cloudy with Light Snow 10 -12.2 2 -16.7 69 69 N 17 28 29.85 1011 9 14 0.00 0.03
10:19 pm 22:19 Cloudy 10 -12.2 2 -16.7 69 69 N 17 28 29.94 1014 10 16 0.00 0.03
10:53 pm 22:53 Cloudy 9 -12.8 0 -17.8 66 66 N 18 30 29.91 1013 10 16 0.00 0.03
11:53 pm 23:53 Cloudy 7 -13.9 -2 -18.9 66 66 N 16 26 29.93 1014 10 16 0.00 0.00

Powered by AerisWeather